Regional Weather Roundup
Issued by NWS Jackson, KY

Home | Current Version | Previous Version | Text Only | Print | Product List | Glossary Off
Versions: 1 2 3 4 5 6 7 8 9 10 11 12 13 14 15 16 17 18 19 20 21 22 23 24 25 26 27 28 29 30 31 32 33 34 35 36 37 38 39 40 41 42 43 44 45 46 47 48 49 50

000
ASUS43 KJKL 052010
RWRJKL

EAST KENTUCKY HOURLY WEATHER ROUNDUP
NATIONAL WEATHER SERVICE JACKSON KY
400 PM EDT SUN JUL 05 2015

NOTE: "FAIR" INDICATES FEW OR NO CLOUDS BELOW 12,000 FEET WITH
NO SIGNIFICANT WEATHER AND/OR OBSTRUCTIONS TO VISIBILITY.

* THESE REPORTS ARE NOT UNDER NWS QUALITY CONTROL AND MAY NOT
  REPORT WEATHER SUCH AS PRECIPITATION AND FOG.

KYZ079-080-083-085-087-088-110-112-115-119-120-052100
...EASTERN KENTUCKY...

CITY           SKY/WX    TMP DP  RH WIND       PRES   REMARKS
JACKSON        LGT RAIN  69  67  93 NW7       30.08F
LONDON         CLOUDY    72  65  78 N7        30.07F
SOMERSET*      CLOUDY    72  66  83 W8        30.08F
MONTICELLO*    MOSUNNY   78  70  76 CALM      30.10F
MIDDLESBORO*   PTSUNNY   76  70  80 NW5       30.05F
HARLAN APT*      N/A     73  64  73 NE6       30.07S
HAZARD APT*    CLOUDY    68  68 100 CALM      30.08S
BLACK MTN*       N/A     64  63  94 S2          N/A
PIKEVILLE APT* CLOUDY    72  68  88 SW8       30.08R
BIG SANDY*     CLOUDY    74  69  85 N5        30.06F
MOREHEAD APT*  CLOUDY    72  68  88 CALM      30.10F
$$

KYZ035-036-041-042-044-050-067-078-099-052100
...CENTRAL KENTUCKY...

CITY           SKY/WX    TMP DP  RH WIND       PRES   REMARKS
MT STERLING*   CLOUDY    72  68  88 N3        30.10S
DANVILLE*      DRIZZLE   73  66  78 NE5       30.09F
RICHMOND*      CLOUDY    70  66  88 CALM      30.08F
LEXINGTON      CLOUDY    77  67  71 CALM      30.09S
FRANKFORT      CLOUDY    79  65  62 CALM      30.08S
$$

KYZ091>093-OHZ055-061-077-WVZ005-015-034-035-042-052100
...SOUTHERN OHIO/WEST VIRGINIA...

CITY           SKY/WX    TMP DP  RH WIND       PRES   REMARKS
COVINGTON      CLOUDY    77  59  53 CALM      30.10R
COLUMBUS       CLOUDY    78  62  57 E6        30.08F
DAYTON         CLOUDY    79  61  53 N6        30.11S
WILMINGTON     CLOUDY    75  60  59 E3        30.09S
HUNTINGTON     CLOUDY    77  69  76 SE3       30.05F
CHARLESTON     TSTM      75  71  87 W3        30.05F
PINEVILLE*     MOSUNNY   81  73  77 MISG      30.10F
BECKLEY        TSTM      71  66  84 SE16      30.12F
BLUEFIELD      HVY RAIN  74  66  76 VRB5      30.14F
$$

VAZ002-007-008-TNZ017-027-036-066-071-052100
...SOUTHWEST VIRGINIA/EAST TENNESSEE...

CITY           SKY/WX    TMP DP  RH WIND       PRES   REMARKS
WISE*          CLOUDY    73  63  68 W5        30.13S
JONESVILLE*      N/A    N/A N/A N/A MISG        N/A
ABINGDON*      LGT RAIN  74  69  81 NW9       30.07S
BRISTOL        PTSUNNY   82  67  60 VRB6      30.04F
KNOXVILLE      LGT RAIN  72  67  84 SW9       30.06
OAK RIDGE      PTSUNNY   79  67  66 VRB3      30.06F
CROSSVILLE     PTSUNNY   76  65  68 W17G24    30.11F
NASHVILLE      PTSUNNY   84  69  60 NW7       30.08S
$$

...KEY TO REMARKS...
VSB - VISIBILITY IN MILES
WCI - WIND CHILL INDEX
HX  - HEAT INDEX

$$



USA.gov is the U.S. government's official web portal to all federal, state and local government web resources and services.